Location: Larkspur
(54.4391°N, 113.7691°W)
Time: 13:06:31
(UTC+00:00)

METEOR M2 - Pass Details

Date: 08 December 2023
Orbit: 819 x 826 km, 98.4° (Epoch: 02 March)

Event Time Altitude Azimuth Distance (km) Brightness Sun altitude
Rises 23:51:31 0° 152° (SSE) 3,356 ? -5.6°
Reaches altitude 10° 23:53:52 10° 149° (SSE) 2,426 ? -5.9°
Maximum altitude 23:59:11 65° 69° (ENE) 909 ? -6.6°
Drops below altitude 10° 00:04:32 10° 349° (NNW) 2,440 ? -7.2°
Sets 00:06:54 0° 346° (NNW) 3,376 ? -7.5°
